Location: Bergheim
(50.9593°N, 6.6400°E)
Time: 10:59:15
(UTC+02:00)

ISS - Pass Details

Date: 20 May 2021
Orbit: 417 x 422 km, 51.6° (Epoch: 13 June)

Event Time Altitude Azimuth Distance (km) Brightness Sun altitude
Rises 22:53:55 0° 264° (W) 2,363 0.5 -11.0°
Reaches altitude 10° 22:56:01 10° 266° (W) 1,501 -0.5 -11.2°
Maximum altitude 22:59:23 81° 353° (N) 431 -3.7 -11.6°
Drops below altitude 10° 23:02:47 10° 82° (E) 1,505 -1.2 -11.9°
Enters shadow 23:04:20 - 83° (E) 2,147 -0.4 -12.0°
